| time (UTC) | temp C | wind direction | speed KPH | gust KPH | rain 1hr cm | rain 24hr cm | rain mn cm | humidity % | barometer mb |
| 20260507052511 | 7 | 326 | 1.6 | 6.4 | 0.00 | 0.71 | 0.10 | 98 | 1013.6 |
| 20260507052010 | 7 | 355 | 1.6 | 6.4 | 0.00 | 0.71 | 0.10 | 98 | 1013.5 |
| 20260507051510 | 7 | 293 | 1.6 | 6.4 | 0.00 | 0.71 | 0.10 | 98 | 1013.5 |
| 20260507051008 | 7 | 332 | 3.2 | 6.4 | 0.00 | 0.71 | 0.10 | 99 | 1013.3 |
| 20260507050508 | 7 | 313 | 0.0 | 4.8 | 0.00 | 0.71 | 0.10 | 99 | 1013.3 |
| 20260507050007 | 6 | 315 | 0.0 | 4.8 | 0.00 | 0.71 | 0.10 | 99 | 1013.2 |
| 20260507045505 | 6 | 322 | 0.0 | 4.8 | 0.00 | 0.76 | 0.10 | 99 | 1013.2 |
| 20260507045005 | 6 | 324 | 0.0 | 3.2 | 0.00 | 0.76 | 0.10 | 98 | 1013.1 |
| 20260507044503 | 6 | 325 | 0.0 | 3.2 | 0.00 | 0.76 | 0.10 | 98 | 1013.0 |
| 20260507044003 | 6 | 331 | 0.0 | 4.8 | 0.00 | 0.76 | 0.10 | 98 | 1013.0 |
| 20260507043503 | 6 | 331 | 1.6 | 4.8 | 0.00 | 0.76 | 0.10 | 98 | 1013.0 |
| 20260507043001 | 6 | 330 | 0.0 | 4.8 | 0.00 | 0.76 | 0.10 | 98 | 1012.9 |
| 20260507042600 | 6 | 340 | 0.0 | 4.8 | 0.00 | 0.76 | 0.10 | 98 | 1012.8 |
| 20260507042059 | 6 | 309 | 0.0 | 4.8 | 0.00 | 0.76 | 0.10 | 98 | 1012.9 |
| 20260507041600 | 6 | 304 | 0.0 | 4.8 | 0.00 | 0.76 | 0.10 | 98 | 1012.8 |
| 20260507041058 | 6 | 306 | 0.0 | 4.8 | 0.00 | 0.76 | 0.10 | 98 | 1012.8 |
| 20260507040600 | 6 | 300 | 0.0 | 3.2 | 0.00 | 0.76 | 0.10 | 98 | 1012.8 |
| 20260507040057 | 6 | 290 | 0.0 | 3.2 | 0.00 | 0.76 | 0.10 | 98 | 1012.7 |
| 20260507035557 | 6 | 289 | 0.0 | 3.2 | 0.03 | 0.84 | 0.10 | 98 | 1012.7 |
| 20260507035057 | 6 | 317 | 0.0 | 4.8 | 0.03 | 0.84 | 0.10 | 98 | 1012.6 |
| 20260507034557 | 6 | 337 | 1.6 | 4.8 | 0.03 | 0.84 | 0.10 | 98 | 1012.7 |
| 20260507034056 | 6 | 310 | 1.6 | 4.8 | 0.03 | 0.84 | 0.10 | 98 | 1012.6 |
| 20260507033555 | 6 | 308 | 0.0 | 4.8 | 0.03 | 0.84 | 0.10 | 98 | 1012.6 |
| 20260507033055 | 6 | 287 | 0.0 | 6.4 | 0.03 | 0.84 | 0.10 | 98 | 1012.5 |
| 20260507032556 | 6 | 309 | 0.0 | 6.4 | 0.03 | 0.84 | 0.10 | 98 | 1012.5 |
| 20260507032055 | 6 | 325 | 1.6 | 6.4 | 0.03 | 0.84 | 0.10 | 98 | 1012.6 |
| 20260507031554 | 6 | 311 | 1.6 | 4.8 | 0.03 | 0.84 | 0.10 | 98 | 1012.5 |
| 20260507031058 | 6 | 277 | 1.6 | 8.0 | 0.03 | 0.84 | 0.10 | 98 | 1012.4 |
| 20260507030552 | 6 | 316 | 1.6 | 8.0 | 0.03 | 0.84 | 0.10 | 99 | 1012.4 |
| 20260507030053 | 6 | 325 | 1.6 | 6.4 | 0.03 | 0.84 | 0.10 | 99 | 1012.4 |
| 20260507025558 | 6 | 304 | 1.6 | 6.4 | 0.00 | 0.89 | 0.08 | 98 | 1012.3 |
| 20260507025057 | 6 | 355 | 1.6 | 6.4 | 0.00 | 0.89 | 0.08 | 99 | 1012.4 |
| 20260507024604 | 7 | 317 | 1.6 | 6.4 | 0.00 | 0.89 | 0.08 | 99 | 1012.3 |
| 20260507024050 | 7 | 336 | 1.6 | 6.4 | 0.00 | 0.89 | 0.08 | 99 | 1012.3 |
| 20260507023557 | 7 | 324 | 1.6 | 6.4 | 0.00 | 0.89 | 0.08 | 99 | 1012.3 |
| 20260507023052 | 7 | 295 | 0.0 | 3.2 | 0.00 | 0.89 | 0.08 | 99 | 1012.2 |
| 20260507022554 | 7 | 294 | 0.0 | 4.8 | 0.00 | 0.89 | 0.08 | 99 | 1012.2 |
| 20260507022054 | 7 | 302 | 1.6 | 4.8 | 0.00 | 0.89 | 0.08 | 99 | 1012.1 |
| 20260507021550 | 7 | 317 | 1.6 | 6.4 | 0.03 | 0.89 | 0.08 | 99 | 1012.2 |
| 20260507021049 | 7 | 288 | 1.6 | 4.8 | 0.03 | 0.89 | 0.08 | 99 | 1012.1 |
| 20260507020548 | 7 | 326 | 1.6 | 4.8 | 0.03 | 0.89 | 0.08 | 99 | 1012.0 |
| 20260507020105 | 6 | 315 | 0.0 | 4.8 | 0.05 | 0.89 | 0.08 | 99 | 1012.0 |
| 20260507015547 | 6 | 323 | 1.6 | 4.8 | 0.05 | 0.99 | 0.08 | 99 | 1012.0 |
| 20260507015047 | 6 | 323 | 0.0 | 3.2 | 0.05 | 0.99 | 0.08 | 99 | 1012.1 |
| 20260507014555 | 6 | 323 | 0.0 | 4.8 | 0.05 | 0.99 | 0.08 | 99 | 1012.1 |
| 20260507014047 | 6 | 323 | 0.0 | 4.8 | 0.05 | 0.99 | 0.08 | 98 | 1012.0 |
| 20260507013546 | 6 | 323 | 0.0 | 4.8 | 0.05 | 0.99 | 0.08 | 98 | 1011.9 |
| 20260507013049 | 6 | 5 | 0.0 | 4.8 | 0.05 | 0.99 | 0.08 | 98 | 1011.9 |
| 20260507012545 | 6 | 13 | 0.0 | 4.8 | 0.05 | 0.99 | 0.08 | 98 | 1011.7 |
| 20260507012045 | 6 | 350 | 1.6 | 4.8 | 0.05 | 0.99 | 0.08 | 99 | 1011.8 |
| 20260507011545 | 6 | 351 | 0.0 | 6.4 | 0.05 | 0.99 | 0.05 | 98 | 1011.7 |
| 20260507011044 | 7 | 360 | 1.6 | 6.4 | 0.05 | 0.99 | 0.05 | 98 | 1011.7 |
| 20260507010545 | 6 | 355 | 1.6 | 4.8 | 0.05 | 0.99 | 0.05 | 98 | 1011.7 |
| 20260507010043 | 6 | 10 | 0.0 | 6.4 | 0.05 | 0.97 | 0.05 | 98 | 1011.6 |
| 20260507005542 | 6 | 36 | 0.0 | 6.4 | 0.05 | 1.12 | 0.05 | 98 | 1011.6 |
| 20260507005041 | 6 | 319 | 1.6 | 9.7 | 0.05 | 1.12 | 0.05 | 98 | 1011.5 |
| 20260507004544 | 6 | 252 | 3.2 | 9.7 | 0.05 | 1.12 | 0.05 | 98 | 1011.5 |
| 20260507004041 | 6 | 170 | 1.6 | 9.7 | 0.05 | 1.12 | 0.05 | 98 | 1011.4 |
| 20260507003541 | 6 | 331 | 3.2 | 9.7 | 0.05 | 1.12 | 0.05 | 98 | 1011.4 |
| 20260507003040 | 7 | 346 | 3.2 | 8.0 | 0.03 | 1.09 | 0.03 | 98 | 1011.5 |
| 20260507002539 | 7 | 302 | 0.0 | 6.4 | 0.03 | 1.09 | 0.03 | 98 | 1011.4 |
| 20260507002039 | 7 | 141 | 3.2 | 9.7 | 0.03 | 1.09 | 0.03 | 98 | 1011.3 |
| 20260507001538 | 7 | 360 | 1.6 | 9.7 | 0.03 | 1.09 | 0.03 | 98 | 1011.3 |
| 20260507001038 | 7 | 342 | 3.2 | 6.4 | 0.00 | 1.09 | 0.00 | 98 | 1011.3 |
| 20260507000539 | 7 | 61 | 3.2 | 6.4 | 0.00 | 1.09 | 0.00 | 98 | 1011.4 |
| 20260507000037 | 7 | 328 | 0.0 | 8.0 | 0.00 | 1.09 | 0.00 | 98 | 1011.3 |
| 20260506235537 | 7 | 355 | 0.0 | 9.7 | 0.00 | 1.24 | 0.00 | 98 | 1011.2 |
| 20260506235040 | 7 | 355 | 3.2 | 9.7 | 0.00 | 1.24 | 0.00 | 98 | 1011.3 |
| 20260506234539 | 7 | 329 | 1.6 | 8.0 | 0.00 | 1.24 | 0.00 | 98 | 1011.2 |
| 20260506234036 | 7 | 331 | 1.6 | 14.5 | 0.00 | 1.24 | 0.00 | 98 | 1011.2 |
| 20260506233536 | 7 | 304 | 1.6 | 14.5 | 0.00 | 1.24 | 0.00 | 98 | 1011.3 |
| 20260506233036 | 7 | 322 | 1.6 | 12.9 | 0.00 | 1.24 | 0.00 | 98 | 1011.3 |
| 20260506232534 | 7 | 323 | 1.6 | 8.0 | 0.00 | 1.24 | 0.00 | 98 | 1011.3 |
| 20260506232035 | 7 | 19 | 1.6 | 8.0 | 0.00 | 1.24 | 0.00 | 98 | 1011.2 |
| 20260506231545 | 7 | 347 | 0.0 | 4.8 | 0.00 | 1.24 | 0.00 | 98 | 1011.3 |
| 20260506231035 | 7 | 286 | 0.0 | 4.8 | 0.00 | 1.24 | 0.00 | 98 | 1011.2 |
| 20260506230532 | 7 | 342 | 1.6 | 8.0 | 0.00 | 1.24 | 0.00 | 98 | 1011.2 |
| 20260506230045 | 7 | 275 | 1.6 | 8.0 | 0.00 | 1.24 | 0.00 | 98 | 1011.2 |
| 20260506225535 | 7 | 9 | 0.0 | 6.4 | 0.00 | 1.42 | 0.00 | 98 | 1011.1 |
| 20260506225032 | 7 | 340 | 1.6 | 4.8 | 0.00 | 1.42 | 0.00 | 98 | 1011.1 |
| 20260506224532 | 7 | 343 | 0.0 | 6.4 | 0.00 | 1.42 | 0.00 | 98 | 1011.2 |
| 20260506224030 | 7 | 342 | 1.6 | 6.4 | 0.00 | 1.42 | 0.00 | 98 | 1011.1 |
| 20260506223534 | 7 | 340 | 1.6 | 4.8 | 0.00 | 1.42 | 0.00 | 98 | 1011.0 |
| 20260506223044 | 7 | 10 | 1.6 | 6.4 | 0.00 | 1.42 | 0.00 | 98 | 1011.0 |
| 20260506222530 | 7 | 355 | 0.0 | 8.0 | 0.00 | 1.42 | 0.00 | 98 | 1011.0 |
| 20260506222030 | 7 | 307 | 1.6 | 8.0 | 0.00 | 1.42 | 0.00 | 98 | 1011.0 |
| 20260506221530 | 7 | 345 | 1.6 | 4.8 | 0.00 | 1.42 | 0.00 | 98 | 1011.0 |
| 20260506221033 | 7 | 321 | 0.0 | 6.4 | 0.00 | 1.42 | 0.00 | 98 | 1011.0 |
| 20260506220530 | 7 | 324 | 1.6 | 6.4 | 0.00 | 1.42 | 0.00 | 98 | 1011.0 |
| 20260506220028 | 7 | 320 | 1.6 | 4.8 | 0.00 | 1.42 | 0.00 | 98 | 1011.0 |
| 20260506215531 | 7 | 299 | 1.6 | 6.4 | 0.00 | 1.60 | 1.42 | 98 | 1010.9 |
| 20260506215026 | 7 | 322 | 1.6 | 6.4 | 0.00 | 1.60 | 1.42 | 98 | 1011.0 |
| 20260506214526 | 7 | 355 | 0.0 | 6.4 | 0.00 | 1.60 | 1.42 | 98 | 1010.9 |
| 20260506214026 | 7 | 351 | 0.0 | 4.8 | 0.00 | 1.60 | 1.42 | 98 | 1010.9 |
| 20260506213526 | 7 | 355 | 0.0 | 3.2 | 0.03 | 1.60 | 1.42 | 98 | 1010.9 |
| 20260506213029 | 7 | 355 | 0.0 | 4.8 | 0.03 | 1.60 | 1.42 | 98 | 1010.9 |
| 20260506212525 | 7 | 349 | 1.6 | 6.4 | 0.03 | 1.60 | 1.42 | 98 | 1010.9 |
| 20260506212025 | 7 | 313 | 1.6 | 6.4 | 0.03 | 1.60 | 1.42 | 98 | 1010.9 |
| 20260506211533 | 7 | 349 | 1.6 | 6.4 | 0.03 | 1.60 | 1.42 | 98 | 1010.9 |
| 20260506211025 | 7 | 338 | 0.0 | 6.4 | 0.03 | 1.60 | 1.42 | 98 | 1010.9 |
| 20260506210524 | 7 | 341 | 1.6 | 6.4 | 0.03 | 1.60 | 1.42 | 98 | 1010.9 |
| 20260506210025 | 7 | 5 | 0.0 | 6.4 | 0.03 | 1.60 | 1.42 | 98 | 1010.8 |
| 20260506205523 | 7 | 306 | 1.6 | 8.0 | 0.03 | 1.73 | 1.42 | 98 | 1010.7 |
| 20260506205023 | 7 | 341 | 1.6 | 8.0 | 0.03 | 1.73 | 1.42 | 98 | 1010.8 |
| 20260506204523 | 7 | 10 | 0.0 | 4.8 | 0.03 | 1.73 | 1.42 | 98 | 1010.8 |
| 20260506204021 | 7 | 343 | 0.0 | 6.4 | 0.00 | 1.70 | 1.40 | 98 | 1010.7 |
| 20260506203521 | 7 | 347 | 1.6 | 6.4 | 0.03 | 1.70 | 1.40 | 98 | 1010.7 |
| 20260506203026 | 7 | 345 | 0.0 | 6.4 | 0.03 | 1.70 | 1.40 | 98 | 1010.7 |
| 20260506202521 | 7 | 321 | 1.6 | 6.4 | 0.03 | 1.70 | 1.40 | 98 | 1010.6 |
| 20260506202022 | 7 | 9 | 0.0 | 6.4 | 0.03 | 1.70 | 1.40 | 98 | 1010.6 |
| 20260506201530 | 7 | 294 | 0.0 | 6.4 | 0.03 | 1.70 | 1.40 | 98 | 1010.5 |
| 20260506201019 | 7 | 360 | 0.0 | 6.4 | 0.03 | 1.70 | 1.40 | 98 | 1010.6 |
| 20260506200518 | 7 | 335 | 1.6 | 8.0 | 0.03 | 1.70 | 1.40 | 98 | 1010.5 |
| 20260506200018 | 7 | 298 | 1.6 | 12.9 | 0.03 | 1.70 | 1.40 | 98 | 1010.5 |
| 20260506195517 | 7 | 284 | 4.8 | 12.9 | 0.03 | 1.80 | 1.40 | 98 | 1010.4 |
| 20260506195018 | 7 | 317 | 0.0 | 6.4 | 0.03 | 1.80 | 1.40 | 98 | 1010.4 |
| 20260506194521 | 7 | 325 | 1.6 | 8.0 | 0.03 | 1.80 | 1.40 | 98 | 1010.4 |
| 20260506194017 | 7 | 341 | 1.6 | 8.0 | 0.03 | 1.80 | 1.40 | 98 | 1010.4 |
| 20260506193516 | 7 | 315 | 1.6 | 8.0 | 0.00 | 1.78 | 1.37 | 98 | 1010.4 |
| 20260506193014 | 7 | 346 | 0.0 | 8.0 | 0.00 | 1.78 | 1.37 | 98 | 1010.4 |
| 20260506192514 | 7 | 49 | 1.6 | 4.8 | 0.00 | 1.78 | 1.37 | 98 | 1010.2 |
| 20260506192013 | 7 | 69 | 1.6 | 8.0 | 0.00 | 1.78 | 1.37 | 98 | 1010.2 |
| 20260506191513 | 7 | 31 | 1.6 | 9.7 | 0.00 | 1.78 | 1.37 | 98 | 1010.1 |
| 20260506191016 | 7 | 174 | 3.2 | 9.7 | 0.03 | 1.78 | 1.37 | 98 | 1010.0 |
| 20260506190516 | 7 | 347 | 1.6 | 8.0 | 0.03 | 1.78 | 1.37 | 98 | 1009.8 |
| 20260506190010 | 7 | 280 | 1.6 | 6.4 | 0.03 | 1.78 | 1.37 | 98 | 1009.8 |
| 20260506185510 | 7 | 325 | 0.0 | 6.4 | 0.03 | 1.80 | 1.37 | 98 | 1009.8 |
| 20260506185014 | 7 | 317 | 1.6 | 6.4 | 0.03 | 1.80 | 1.37 | 98 | 1009.7 |
| 20260506184508 | 7 | 26 | 0.0 | 4.8 | 0.03 | 1.80 | 1.37 | 98 | 1009.6 |
| 20260506184011 | 7 | 355 | 0.0 | 6.4 | 0.03 | 1.80 | 1.37 | 98 | 1009.6 |
| 20260506183508 | 7 | 36 | 1.6 | 6.4 | 0.03 | 1.80 | 1.37 | 98 | 1009.5 |
| 20260506183106 | 7 | 121 | 1.6 | 6.4 | 0.03 | 1.80 | 1.37 | 98 | 1009.4 |
| 20260506182506 | 7 | 331 | 1.6 | 6.4 | 0.03 | 1.80 | 1.37 | 98 | 1009.4 |
| 20260506182005 | 7 | 13 | 1.6 | 8.0 | 0.03 | 1.80 | 1.37 | 98 | 1009.3 |
| 20260506181508 | 7 | 355 | 1.6 | 8.0 | 0.03 | 1.80 | 1.37 | 98 | 1009.3 |
| 20260506181005 | 7 | 333 | 1.6 | 9.7 | 0.00 | 1.78 | 1.37 | 98 | 1009.2 |
| 20260506180504 | 7 | 350 | 3.2 | 9.7 | 0.00 | 1.78 | 1.37 | 98 | 1009.2 |
| 20260506180008 | 7 | 99 | 3.2 | 9.7 | 0.00 | 1.78 | 1.37 | 98 | 1009.1 |
| 20260506175502 | 7 | 327 | 3.2 | 9.7 | 0.00 | 1.78 | 1.37 | 98 | 1009.1 |
| 20260506175004 | 7 | 10 | 1.6 | 8.0 | 0.00 | 1.78 | 1.37 | 98 | 1009.1 |
| 20260506174506 | 7 | 319 | 3.2 | 8.0 | 0.00 | 1.78 | 1.37 | 98 | 1009.1 |
| 20260506174002 | 7 | 350 | 3.2 | 8.0 | 0.00 | 1.78 | 1.37 | 98 | 1009.0 |
| 20260506173501 | 7 | 338 | 1.6 | 6.4 | 0.03 | 1.78 | 1.37 | 98 | 1009.0 |
| 20260506173109 | 8 | 323 | 1.6 | 8.0 | 0.03 | 1.78 | 1.37 | 98 | 1008.9 |
| 20260506172603 | 8 | 344 | 1.6 | 4.8 | 0.03 | 1.78 | 1.37 | 98 | 1008.8 |
| 20260506172104 | 8 | 29 | 0.0 | 8.0 | 0.03 | 1.78 | 1.37 | 98 | 1008.8 |
| 20260506171559 | 8 | 360 | 0.0 | 8.0 | 0.03 | 1.78 | 1.37 | 98 | 1008.7 |
| 20260506171103 | 8 | 42 | 1.6 | 3.2 | 0.03 | 1.78 | 1.37 | 98 | 1008.6 |
| 20260506170558 | 8 | 123 | 0.0 | 6.4 | 0.03 | 1.78 | 1.37 | 98 | 1008.6 |
| 20260506170114 | 8 | 355 | 1.6 | 6.4 | 0.03 | 1.78 | 1.37 | 98 | 1008.5 |
| 20260506165557 | 8 | 349 | 0.0 | 4.8 | 0.03 | 1.78 | 1.37 | 98 | 1008.6 |
| 20260506165057 | 8 | 302 | 1.6 | 6.4 | 0.03 | 1.78 | 1.37 | 98 | 1008.5 |
| 20260506164556 | 8 | 263 | 0.0 | 9.7 | 0.03 | 1.78 | 1.37 | 97 | 1008.5 |
| 20260506164056 | 8 | 316 | 3.2 | 9.7 | 0.03 | 1.78 | 1.37 | 97 | 1008.5 |
| 20260506163558 | 8 | 333 | 3.2 | 8.0 | 0.00 | 1.75 | 1.35 | 97 | 1008.4 |
| 20260506163109 | 8 | 360 | 3.2 | 9.7 | 0.03 | 1.75 | 1.35 | 97 | 1008.4 |
| 20260506162555 | 8 | 5 | 3.2 | 9.7 | 0.03 | 1.75 | 1.35 | 98 | 1008.3 |
| 20260506162055 | 8 | 9 | 0.0 | 4.8 | 0.03 | 1.75 | 1.35 | 98 | 1008.4 |
| 20260506161555 | 8 | 15 | 1.6 | 6.4 | 0.03 | 1.75 | 1.35 | 98 | 1008.4 |
| 20260506161054 | 8 | 319 | 1.6 | 6.4 | 0.03 | 1.75 | 1.35 | 98 | 1008.3 |
| 20260506160554 | 8 | 318 | 1.6 | 6.4 | 0.05 | 1.75 | 1.35 | 98 | 1008.4 |
| 20260506160053 | 8 | 355 | 1.6 | 8.0 | 0.05 | 1.75 | 1.35 | 98 | 1008.4 |
| 20260506155554 | 8 | 5 | 0.0 | 6.4 | 0.05 | 1.75 | 1.35 | 98 | 1008.4 |
| 20260506155055 | 8 | 351 | 0.0 | 6.4 | 0.05 | 1.75 | 1.35 | 98 | 1008.4 |
| 20260506154553 | 8 | 113 | 1.6 | 6.4 | 0.05 | 1.75 | 1.35 | 98 | 1008.3 |
| 20260506154053 | 8 | 355 | 1.6 | 4.8 | 0.05 | 1.75 | 1.35 | 98 | 1008.4 |
| 20260506153553 | 8 | 78 | 1.6 | 6.4 | 0.05 | 1.75 | 1.35 | 98 | 1008.4 |
| 20260506153052 | 8 | 11 | 1.6 | 6.4 | 0.05 | 1.75 | 1.32 | 98 | 1008.3 |
| 20260506152553 | 8 | 61 | 1.6 | 8.0 | 0.05 | 1.75 | 1.32 | 98 | 1008.4 |
| 20260506152051 | 8 | 13 | 0.0 | 8.0 | 0.05 | 1.75 | 1.32 | 98 | 1008.3 |
| 20260506151552 | 8 | 329 | 0.0 | 8.0 | 0.05 | 1.75 | 1.32 | 98 | 1008.3 |
| 20260506151055 | 7 | 360 | 1.6 | 8.0 | 0.05 | 1.75 | 1.32 | 98 | 1008.3 |
| 20260506150550 | 7 | 340 | 0.0 | 6.4 | 0.05 | 1.73 | 1.30 | 98 | 1008.2 |
| 20260506150049 | 7 | 314 | 3.2 | 8.0 | 0.05 | 1.73 | 1.30 | 98 | 1008.2 |
| 20260506145549 | 7 | 309 | 1.6 | 8.0 | 0.05 | 1.73 | 1.30 | 98 | 1008.1 |
| 20260506145051 | 7 | 294 | 1.6 | 8.0 | 0.08 | 1.73 | 1.30 | 98 | 1008.1 |
| 20260506144601 | 7 | 342 | 3.2 | 8.0 | 0.08 | 1.73 | 1.30 | 98 | 1008.1 |
| 20260506144047 | 7 | 13 | 1.6 | 8.0 | 0.10 | 1.73 | 1.30 | 98 | 1008.2 |
| 20260506143548 | 7 | 5 | 1.6 | 8.0 | 0.08 | 1.70 | 1.27 | 98 | 1008.1 |
| 20260506143048 | 7 | 360 | 1.6 | 8.0 | 0.10 | 1.70 | 1.27 | 98 | 1008.1 |
| 20260506142549 | 7 | 326 | 1.6 | 6.4 | 0.10 | 1.70 | 1.27 | 98 | 1008.1 |
| 20260506142049 | 7 | 325 | 1.6 | 12.9 | 0.10 | 1.68 | 1.27 | 98 | 1008.1 |
| 20260506141547 | 7 | 111 | 1.6 | 12.9 | 0.10 | 1.68 | 1.27 | 98 | 1008.1 |
| 20260506141047 | 7 | 319 | 0.0 | 8.0 | 0.13 | 1.68 | 1.27 | 98 | 1008.1 |
| 20260506140547 | 7 | 266 | 3.2 | 8.0 | 0.10 | 1.65 | 1.24 | 98 | 1008.1 |
| 20260506140046 | 7 | 340 | 3.2 | 8.0 | 0.13 | 1.65 | 1.24 | 98 | 1008.1 |
| 20260506135545 | 7 | 69 | 1.6 | 8.0 | 0.10 | 1.68 | 1.22 | 98 | 1008.1 |
| 20260506135044 | 7 | 31 | 1.6 | 6.4 | 0.13 | 1.68 | 1.22 | 98 | 1008.1 |
| 20260506134544 | 7 | 240 | 1.6 | 8.0 | 0.13 | 1.68 | 1.22 | 98 | 1008.1 |
| 20260506134043 | 7 | 329 | 1.6 | 8.0 | 0.10 | 1.65 | 1.19 | 98 | 1008.1 |
| 20260506133544 | 7 | 323 | 1.6 | 9.7 | 0.13 | 1.65 | 1.19 | 98 | 1008.0 |
| 20260506133044 | 7 | 310 | 1.6 | 4.8 | 0.10 | 1.65 | 1.17 | 98 | 1008.0 |
| 20260506132542 | 7 | 22 | 0.0 | 8.0 | 0.13 | 1.65 | 1.17 | 98 | 1008.0 |
| 20260506132044 | 7 | 13 | 3.2 | 8.0 | 0.10 | 1.63 | 1.17 | 98 | 1008.0 |
| 20260506131541 | 7 | 44 | 1.6 | 6.4 | 0.10 | 1.63 | 1.17 | 98 | 1008.0 |
| 20260506131041 | 7 | 321 | 0.0 | 8.0 | 0.08 | 1.60 | 1.14 | 98 | 1007.9 |
| 20260506130540 | 7 | 11 | 1.6 | 8.0 | 0.05 | 1.57 | 1.12 | 98 | 1008.0 |
| 20260506130040 | 7 | 10 | 1.6 | 8.0 | 0.08 | 1.57 | 1.12 | 97 | 1007.9 |
| 20260506125538 | 7 | 338 | 1.6 | 6.4 | 0.08 | 1.57 | 1.12 | 98 | 1007.9 |
| 20260506125038 | 7 | 263 | 1.6 | 6.4 | 0.05 | 1.55 | 1.09 | 98 | 1007.9 |
| 20260506124538 | 7 | 337 | 1.6 | 4.8 | 0.05 | 1.55 | 1.09 | 98 | 1007.9 |
| 20260506124037 | 7 | 309 | 1.6 | 4.8 | 0.05 | 1.55 | 1.09 | 98 | 1007.9 |
| 20260506123537 | 7 | 90 | 0.0 | 8.0 | 0.05 | 1.55 | 1.09 | 98 | 1007.8 |
| 20260506123037 | 7 | 46 | 0.0 | 8.0 | 0.05 | 1.55 | 1.09 | 98 | 1007.8 |
| 20260506122537 | 7 | 342 | 1.6 | 8.0 | 0.05 | 1.52 | 1.07 | 98 | 1007.7 |
| 20260506122035 | 7 | 349 | 1.6 | 8.0 | 0.05 | 1.52 | 1.07 | 98 | 1007.7 |
| 20260506121537 | 7 | 341 | 3.2 | 8.0 | 0.05 | 1.52 | 1.07 | 98 | 1007.7 |
| 20260506121035 | 7 | 309 | 3.2 | 6.4 | 0.05 | 1.52 | 1.07 | 98 | 1007.7 |
| 20260506120533 | 7 | 296 | 1.6 | 8.0 | 0.03 | 1.50 | 1.04 | 98 | 1007.6 |
| 20260506120041 | 7 | 18 | 1.6 | 6.4 | 0.03 | 1.50 | 1.04 | 98 | 1007.5 |
| 20260506115534 | 7 | 15 | 0.0 | 9.7 | 0.03 | 1.50 | 1.04 | 98 | 1007.6 |
| 20260506115034 | 7 | 321 | 1.6 | 9.7 | 0.03 | 1.50 | 1.04 | 98 | 1007.4 |
| 20260506114533 | 7 | 65 | 1.6 | 9.7 | 0.03 | 1.50 | 1.04 | 98 | 1007.4 |
| 20260506114032 | 7 | 74 | 1.6 | 8.0 | 0.00 | 1.45 | 1.02 | 98 | 1007.3 |
| 20260506113531 | 7 | 66 | 0.0 | 8.0 | 0.00 | 1.45 | 1.02 | 98 | 1007.3 |
| 20260506113032 | 7 | 265 | 0.0 | 9.7 | 0.03 | 1.45 | 1.02 | 98 | 1007.4 |
| 20260506112533 | 7 | 313 | 0.0 | 9.7 | 0.03 | 1.45 | 1.02 | 98 | 1007.4 |
| 20260506112028 | 7 | 355 | 1.6 | 9.7 | 0.03 | 1.45 | 1.02 | 98 | 1007.4 |
| 20260506111529 | 8 | 335 | 1.6 | 8.0 | 0.03 | 1.45 | 1.02 | 98 | 1007.3 |
| 20260506111029 | 8 | 274 | 3.2 | 8.0 | 0.03 | 1.45 | 1.02 | 98 | 1007.3 |
| 20260506110529 | 7 | 321 | 1.6 | 6.4 | 0.05 | 1.45 | 1.02 | 98 | 1007.2 |
| 20260506110028 | 8 | 71 | 1.6 | 4.8 | 0.05 | 1.45 | 1.02 | 98 | 1007.3 |
| 20260506105526 | 8 | 76 | 1.6 | 9.7 | 0.05 | 1.60 | 1.02 | 98 | 1007.3 |
| 20260506105026 | 8 | 340 | 1.6 | 8.0 | 0.05 | 1.60 | 1.02 | 98 | 1007.2 |
| 20260506104525 | 8 | 35 | 0.0 | 8.0 | 0.05 | 1.60 | 1.02 | 98 | 1007.2 |
| 20260506104026 | 8 | 82 | 1.6 | 4.8 | 0.05 | 1.60 | 1.02 | 98 | 1007.2 |
| 20260506103525 | 8 | 334 | 0.0 | 4.8 | 0.08 | 1.60 | 1.02 | 98 | 1007.1 |
| 20260506103025 | 8 | 62 | 1.6 | 8.0 | 0.05 | 1.57 | 0.99 | 98 | 1007.0 |
| 20260506102524 | 8 | 360 | 1.6 | 6.4 | 0.08 | 1.57 | 0.99 | 98 | 1007.0 |
| 20260506102022 | 8 | 92 | 1.6 | 6.4 | 0.08 | 1.57 | 0.99 | 98 | 1007.0 |
| 20260506101523 | 8 | 336 | 1.6 | 6.4 | 0.10 | 1.57 | 0.99 | 98 | 1006.9 |
| 20260506101026 | 8 | 334 | 0.0 | 6.4 | 0.10 | 1.57 | 0.99 | 98 | 1006.9 |
| 20260506100526 | 8 | 130 | 1.6 | 4.8 | 0.08 | 1.55 | 0.99 | 98 | 1006.8 |
| 20260506100021 | 8 | 93 | 0.0 | 6.4 | 0.08 | 1.55 | 0.99 | 98 | 1006.9 |
| 20260506095521 | 8 | 22 | 3.2 | 9.7 | 0.08 | 1.75 | 0.99 | 98 | 1006.9 |
| 20260506095021 | 8 | 348 | 1.6 | 9.7 | 0.08 | 1.75 | 0.99 | 98 | 1006.8 |
| 20260506094521 | 8 | 52 | 0.0 | 4.8 | 0.05 | 1.75 | 0.97 | 98 | 1006.8 |
| 20260506094021 | 8 | 67 | 1.6 | 6.4 | 0.05 | 1.75 | 0.97 | 98 | 1006.8 |
| 20260506093522 | 8 | 5 | 0.0 | 8.0 | 0.05 | 1.73 | 0.94 | 98 | 1006.8 |
| 20260506093019 | 8 | 355 | 1.6 | 8.0 | 0.05 | 1.73 | 0.94 | 98 | 1006.7 |
| 20260506092519 | 8 | 326 | 1.6 | 6.4 | 0.03 | 1.70 | 0.91 | 98 | 1006.8 |
| 20260506092021 | 8 | 167 | 1.6 | 6.4 | 0.03 | 1.70 | 0.91 | 98 | 1006.6 |
| 20260506091519 | 8 | 335 | 1.6 | 6.4 | 0.00 | 1.68 | 0.89 | 98 | 1006.4 |
| 20260506091019 | 8 | 74 | 1.6 | 6.4 | 0.00 | 1.68 | 0.89 | 98 | 1006.4 |
| 20260506090519 | 8 | 165 | 1.6 | 8.0 | 0.03 | 1.68 | 0.89 | 98 | 1006.4 |
| 20260506090026 | 8 | 59 | 1.6 | 9.7 | 0.03 | 1.68 | 0.89 | 98 | 1006.4 |
| 20260506085519 | 8 | 40 | 1.6 | 9.7 | 0.03 | 1.68 | 0.89 | 98 | 1006.4 |
| 20260506085017 | 8 | 320 | 1.6 | 8.0 | 0.03 | 1.68 | 0.89 | 98 | 1006.3 |
| 20260506084520 | 8 | 331 | 1.6 | 6.4 | 0.03 | 1.68 | 0.89 | 98 | 1006.3 |
| 20260506084017 | 8 | 307 | 0.0 | 8.0 | 0.03 | 1.68 | 0.89 | 98 | 1006.4 |
| 20260506083517 | 8 | 338 | 0.0 | 6.4 | 0.03 | 1.68 | 0.89 | 98 | 1006.3 |
| 20260506083017 | 8 | 330 | 3.2 | 6.4 | 0.03 | 1.68 | 0.89 | 98 | 1006.2 |
| 20260506082516 | 8 | 17 | 1.6 | 6.4 | 0.03 | 1.68 | 0.89 | 98 | 1006.3 |
| 20260506082016 | 8 | 348 | 0.0 | 6.4 | 0.03 | 1.68 | 0.89 | 98 | 1006.2 |
| 20260506081516 | 8 | 344 | 1.6 | 6.4 | 0.03 | 1.68 | 0.89 | 98 | 1006.3 |
| 20260506081016 | 8 | 360 | 1.6 | 6.4 | 0.03 | 1.68 | 0.89 | 98 | 1006.2 |
| 20260506080516 | 8 | 49 | 0.0 | 0.0 | 0.00 | 1.65 | 0.89 | 98 | 1006.2 |
| 20260506073514 | 8 | 355 | 0.0 | 6.4 | 0.03 | 1.65 | 0.89 | 98 | 1006.2 |
| 20260506073014 | 8 | 40 | 1.6 | 9.7 | 0.03 | 1.65 | 0.89 | 98 | 1006.1 |
| 20260506072513 | 8 | 82 | 3.2 | 9.7 | 0.03 | 1.65 | 0.89 | 98 | 1006.1 |
| 20260506072012 | 8 | 346 | 1.6 | 8.0 | 0.03 | 1.65 | 0.89 | 98 | 1006.1 |
| 20260506071511 | 8 | 332 | 1.6 | 8.0 | 0.05 | 1.65 | 0.89 | 98 | 1006.1 |
| 20260506071010 | 8 | 338 | 1.6 | 6.4 | 0.05 | 1.65 | 0.89 | 98 | 1006.0 |
| 20260506070610 | 8 | 344 | 1.6 | 6.4 | 0.05 | 1.65 | 0.89 | 98 | 1006.0 |
| 20260506062506 | 8 | 26 | 1.6 | 6.4 | 0.05 | 1.65 | 0.86 | 98 | 1005.8 |
| 20260506062006 | 8 | 355 | 3.2 | 6.4 | 0.05 | 1.65 | 0.86 | 98 | 1005.8 |
| 20260506061505 | 8 | 360 | 0.0 | 4.8 | 0.05 | 1.65 | 0.84 | 98 | 1005.8 |
| 20260506061004 | 8 | 309 | 0.0 | 4.8 | 0.05 | 1.65 | 0.84 | 98 | 1005.7 |
| 20260506060505 | 8 | 49 | 0.0 | 4.8 | 0.05 | 1.65 | 0.84 | 98 | 1005.7 |